RYR47HY LEMG-EGTE

Flight info

Callsign RYR47HY
Flight time 2h 9m
Altitude 36000
Route BLN DCT MORAL DCT BEXID DCT VTB N865 DELOG DCT NOVAN DCT ERCOZ DCT SKESO P16 FIMCA N22 BHD
Aircraft B738/M-SDE2E3FGHIRWXY/LB1

Departure

Time 2026-05-06 08:48
Airport Málaga-Costa del Sol Airport (LEMG)

Arrival

Time 2026-05-06 10:58
Airport Exeter International Airport (EGTE)
Time Latitude Longitude Altitude Speed Heading
2026-05-06 08:14 36.67295 -4.48981 41 ft 0 kts 331°
2026-05-06 08:34 36.67289 -4.48977 40 ft 3 kts 329°
2026-05-06 08:34 36.67258 -4.48953 39 ft 3 kts 330°
2026-05-06 08:34 36.67240 -4.48941 38 ft 3 kts 332°
2026-05-06 08:35 36.67229 -4.48935 38 ft 1 kts 355°
2026-05-06 08:35 36.67221 -4.48935 38 ft 1 kts 24°
2026-05-06 08:35 36.67210 -4.48943 36 ft 3 kts 39°
2026-05-06 08:35 36.67196 -4.48959 39 ft 3 kts 45°
2026-05-06 08:36 36.67182 -4.48975 40 ft 2 kts 37°
2026-05-06 08:36 36.67170 -4.48984 39 ft 2 kts 17°
2026-05-06 08:36 36.67158 -4.48987 41 ft 2 kts 354°
2026-05-06 08:36 36.67148 -4.48984 41 ft 1 kts 338°
2026-05-06 08:37 36.67140 -4.48980 41 ft 1 kts 329°
2026-05-06 08:37 36.67133 -4.48974 41 ft 1 kts 323°
2026-05-06 08:37 36.67132 -4.48973 40 ft 0 kts 322°
2026-05-06 08:38 36.67144 -4.48989 40 ft 9 kts 306°
2026-05-06 08:38 36.67135 -4.49098 41 ft 14 kts 279°
2026-05-06 08:39 36.67189 -4.49191 41 ft 13 kts 312°
2026-05-06 08:39 36.67250 -4.49276 41 ft 14 kts 310°
2026-05-06 08:39 36.67323 -4.49380 42 ft 19 kts 312°
2026-05-06 08:39 36.67412 -4.49503 42 ft 19 kts 311°
2026-05-06 08:40 36.67508 -4.49640 42 ft 26 kts 310°
2026-05-06 08:40 36.67618 -4.49792 42 ft 19 kts 312°
2026-05-06 08:40 36.67717 -4.49889 42 ft 19 kts
2026-05-06 08:40 36.67838 -4.49809 41 ft 23 kts 42°
2026-05-06 08:41 36.67929 -4.49707 41 ft 17 kts 43°
2026-05-06 08:41 36.68015 -4.49611 41 ft 16 kts 40°
2026-05-06 08:41 36.68098 -4.49520 41 ft 16 kts 39°
2026-05-06 08:41 36.68178 -4.49432 41 ft 15 kts 41°
2026-05-06 08:42 36.68254 -4.49347 39 ft 14 kts 42°
2026-05-06 08:42 36.68273 -4.49247 40 ft 10 kts 117°
2026-05-06 08:42 36.68268 -4.49235 37 ft 1 kts 116°
2026-05-06 08:42 36.68241 -4.49166 39 ft 11 kts 117°
2026-05-06 08:43 36.68202 -4.49074 38 ft 18 kts 116°
2026-05-06 08:43 36.68143 -4.48933 39 ft 18 kts 116°
2026-05-06 08:43 36.68086 -4.48798 38 ft 18 kts 117°
2026-05-06 08:43 36.68030 -4.48666 39 ft 17 kts 117°
2026-05-06 08:44 36.67975 -4.48533 37 ft 17 kts 117°
2026-05-06 08:44 36.67921 -4.48405 39 ft 16 kts 115°
2026-05-06 08:44 36.67871 -4.48281 38 ft 16 kts 122°
2026-05-06 08:44 36.67819 -4.48163 36 ft 15 kts 117°
2026-05-06 08:45 36.67771 -4.48049 34 ft 15 kts 118°
2026-05-06 08:45 36.67725 -4.47940 32 ft 14 kts 117°
2026-05-06 08:45 36.67689 -4.47834 31 ft 11 kts 89°
2026-05-06 08:45 36.67729 -4.47752 29 ft 11 kts 57°
2026-05-06 08:46 36.67783 -4.47692 33 ft 11 kts
2026-05-06 08:46 36.67829 -4.47747 33 ft 2 kts 298°
2026-05-06 08:47 36.67926 -4.47977 37 ft 71 kts 297°
2026-05-06 08:47 36.68283 -4.48823 43 ft 147 kts 297°
2026-05-06 08:48 36.68832 -4.50121 504 ft 179 kts 297°
2026-05-06 08:48 36.69569 -4.51442 1475 ft 188 kts 310°
2026-05-06 08:48 36.70467 -4.52748 2224 ft 212 kts 311°
2026-05-06 08:48 36.71488 -4.54207 2641 ft 230 kts 313°
2026-05-06 08:49 36.72568 -4.55703 3326 ft 234 kts 313°
2026-05-06 08:49 36.73748 -4.57187 3737 ft 252 kts 322°
2026-05-06 08:49 36.75249 -4.58404 4383 ft 261 kts 333°
2026-05-06 08:49 36.76914 -4.59286 5351 ft 261 kts 340°
2026-05-06 08:50 36.78651 -4.60014 6203 ft 266 kts 342°
2026-05-06 08:50 36.80425 -4.60720 7033 ft 269 kts 342°
2026-05-06 08:50 36.82225 -4.61437 7859 ft 274 kts 341°
2026-05-06 08:50 36.84058 -4.62177 8635 ft 279 kts 341°
2026-05-06 08:51 36.85917 -4.62935 9450 ft 284 kts 340°
2026-05-06 08:51 36.87789 -4.63701 10175 ft 289 kts 340°
2026-05-06 08:51 36.89760 -4.64516 10528 ft 311 kts 340°
2026-05-06 08:51 36.91894 -4.65397 10745 ft 334 kts 340°
2026-05-06 08:52 36.94197 -4.66106 11262 ft 346 kts 350°
2026-05-06 08:52 36.96622 -4.66288 12006 ft 351 kts
2026-05-06 08:52 36.99064 -4.65925 12766 ft 357 kts 10°
2026-05-06 08:52 37.01436 -4.65028 13526 ft 362 kts 20°
2026-05-06 08:53 37.03722 -4.63617 14199 ft 369 kts 29°
2026-05-06 08:53 37.05860 -4.61776 14820 ft 375 kts 34°
2026-05-06 08:53 37.07996 -4.59844 15469 ft 379 kts 34°
2026-05-06 08:53 37.10148 -4.57903 16103 ft 384 kts 34°
2026-05-06 08:54 37.12332 -4.55940 16740 ft 389 kts 33°
2026-05-06 08:54 37.14541 -4.53958 17369 ft 393 kts 33°
2026-05-06 08:54 37.16782 -4.51950 17991 ft 397 kts 33°
2026-05-06 08:54 37.19018 -4.49951 18539 ft 402 kts 33°
2026-05-06 08:55 37.21306 -4.47905 19049 ft 406 kts 33°
2026-05-06 08:55 37.23621 -4.45834 19549 ft 411 kts 33°
2026-05-06 08:55 37.25960 -4.43741 20063 ft 415 kts 33°
2026-05-06 08:55 37.28323 -4.41624 20574 ft 419 kts 33°
2026-05-06 08:56 37.30708 -4.39487 21070 ft 423 kts 33°
2026-05-06 08:56 37.33123 -4.37319 21570 ft 427 kts 33°
2026-05-06 08:56 37.35552 -4.35138 22063 ft 431 kts 33°
2026-05-06 08:56 37.37980 -4.32956 22540 ft 434 kts 33°
2026-05-06 08:57 37.40458 -4.30727 23023 ft 438 kts 33°
2026-05-06 08:57 37.42955 -4.28480 23496 ft 442 kts 33°
2026-05-06 08:57 37.45435 -4.26244 23867 ft 446 kts 33°
2026-05-06 08:57 37.47976 -4.23953 24269 ft 448 kts 32°
2026-05-06 08:58 37.50514 -4.21662 24666 ft 451 kts 32°
2026-05-06 08:58 37.53072 -4.19351 25044 ft 454 kts 32°
2026-05-06 08:58 37.55649 -4.17021 25403 ft 456 kts 32°
2026-05-06 08:58 37.58241 -4.14677 25750 ft 460 kts 32°
2026-05-06 08:59 37.60825 -4.12336 26087 ft 463 kts 32°
2026-05-06 08:59 37.63450 -4.09956 26435 ft 466 kts 32°
2026-05-06 08:59 37.66120 -4.07534 26783 ft 469 kts 32°
2026-05-06 08:59 37.68778 -4.05120 27111 ft 472 kts 32°
2026-05-06 09:00 37.71425 -4.02714 27434 ft 475 kts 32°
2026-05-06 09:00 37.74116 -4.00265 27761 ft 478 kts 32°
2026-05-06 09:00 37.76829 -3.97795 28084 ft 481 kts 32°
2026-05-06 09:00 37.79552 -3.95313 28353 ft 484 kts 32°
2026-05-06 09:01 37.82291 -3.92815 28646 ft 487 kts 32°
2026-05-06 09:01 37.85048 -3.90297 28948 ft 490 kts 32°
2026-05-06 09:01 37.87822 -3.87760 29254 ft 492 kts 31°
2026-05-06 09:01 37.90566 -3.85249 29547 ft 494 kts 31°
2026-05-06 09:02 37.93363 -3.82687 29811 ft 497 kts 31°
2026-05-06 09:02 37.96175 -3.80109 30067 ft 499 kts 31°
2026-05-06 09:02 37.99000 -3.77516 30292 ft 502 kts 31°
2026-05-06 09:02 38.00875 -3.75793 30480 ft 502 kts 31°
2026-05-06 09:03 38.03700 -3.73195 30834 ft 501 kts 31°
2026-05-06 09:03 38.06518 -3.70601 31178 ft 500 kts 31°
2026-05-06 09:03 38.09332 -3.68009 31494 ft 500 kts 31°
2026-05-06 09:03 38.12155 -3.65409 31781 ft 500 kts 31°
2026-05-06 09:04 38.15079 -3.63038 32036 ft 493 kts 18°
2026-05-06 09:04 38.18301 -3.61905 32296 ft 474 kts 357°
2026-05-06 09:04 38.21556 -3.61852 32692 ft 465 kts 353°
2026-05-06 09:04 38.24760 -3.61721 32982 ft 468 kts 355°
2026-05-06 09:05 38.28029 -3.61434 33207 ft 471 kts 357°
2026-05-06 09:05 38.31321 -3.61077 33505 ft 472 kts 357°
2026-05-06 09:05 38.34556 -3.60710 33847 ft 471 kts 357°
2026-05-06 09:05 38.37815 -3.60349 34146 ft 469 kts 357°
2026-05-06 09:06 38.41079 -3.60002 34371 ft 469 kts 357°
2026-05-06 09:06 38.44347 -3.59670 34594 ft 469 kts 357°
2026-05-06 09:06 38.47605 -3.59349 34835 ft 468 kts 356°
2026-05-06 09:06 38.50860 -3.59032 35056 ft 468 kts 357°
2026-05-06 09:07 38.54075 -3.58720 35279 ft 468 kts 357°
2026-05-06 09:07 38.57337 -3.58403 35508 ft 468 kts 357°
2026-05-06 09:07 38.60579 -3.58086 35736 ft 467 kts 357°
2026-05-06 09:07 38.63820 -3.57769 35930 ft 467 kts 357°
2026-05-06 09:08 38.67064 -3.57451 35952 ft 469 kts 357°
2026-05-06 09:08 38.73530 -3.56816 35972 ft 468 kts 357°
2026-05-06 09:09 38.80018 -3.56174 35974 ft 465 kts 357°
2026-05-06 09:09 38.86464 -3.55538 35975 ft 464 kts 357°
2026-05-06 09:10 38.92900 -3.54903 35975 ft 463 kts 357°
2026-05-06 09:10 38.99316 -3.54268 35971 ft 462 kts 357°
2026-05-06 09:11 39.05720 -3.53635 35977 ft 461 kts 357°
2026-05-06 09:11 39.12121 -3.53004 35976 ft 461 kts 357°
2026-05-06 09:12 39.18529 -3.52372 35980 ft 462 kts 357°
2026-05-06 09:12 39.24945 -3.51736 35986 ft 463 kts 358°
2026-05-06 09:13 39.31346 -3.51100 35984 ft 463 kts 358°
2026-05-06 09:13 39.37784 -3.50460 35983 ft 464 kts 358°
2026-05-06 09:14 39.44232 -3.49817 35982 ft 465 kts 358°
2026-05-06 09:14 39.50697 -3.49171 35983 ft 465 kts 358°
2026-05-06 09:15 39.57116 -3.48529 35985 ft 465 kts 358°
2026-05-06 09:15 39.63578 -3.47876 35980 ft 465 kts 358°
2026-05-06 09:16 39.70025 -3.47221 35987 ft 464 kts 358°
2026-05-06 09:16 39.76448 -3.46568 35987 ft 464 kts 358°
2026-05-06 09:17 39.82819 -3.46667 36003 ft 454 kts 348°
2026-05-06 09:17 39.89119 -3.47406 35995 ft 453 kts 348°
2026-05-06 09:18 39.95410 -3.48126 35997 ft 453 kts 349°
2026-05-06 09:18 40.01649 -3.48784 35993 ft 452 kts 349°
2026-05-06 09:19 40.07922 -3.49422 36008 ft 451 kts 349°
2026-05-06 09:19 40.14188 -3.50057 36001 ft 451 kts 349°
2026-05-06 09:20 40.20458 -3.50694 36001 ft 451 kts 349°
2026-05-06 09:20 40.26601 -3.51076 35996 ft 458 kts 359°
2026-05-06 09:21 40.32899 -3.51242 36030 ft 448 kts 347°
2026-05-06 09:21 40.39059 -3.52296 36016 ft 448 kts 347°
2026-05-06 09:22 40.45289 -3.53198 36025 ft 450 kts 348°
2026-05-06 09:22 40.51531 -3.53902 36032 ft 451 kts 349°
2026-05-06 09:23 40.57765 -3.54537 36025 ft 452 kts 350°
2026-05-06 09:23 40.64047 -3.55175 36017 ft 452 kts 350°
2026-05-06 09:24 40.70323 -3.55820 36011 ft 452 kts 350°
2026-05-06 09:24 40.76600 -3.56470 36016 ft 452 kts 350°
2026-05-06 09:25 40.82874 -3.57122 36003 ft 452 kts 350°
2026-05-06 09:25 40.89139 -3.57774 36005 ft 452 kts 350°
2026-05-06 09:26 40.95403 -3.58427 36011 ft 451 kts 350°
2026-05-06 09:26 41.01622 -3.59077 36006 ft 451 kts 350°
2026-05-06 09:27 41.07873 -3.59731 36020 ft 450 kts 350°
2026-05-06 09:27 41.14107 -3.60386 36009 ft 450 kts 350°
2026-05-06 09:28 41.20376 -3.60753 36019 ft 451 kts 354°
2026-05-06 09:28 41.26661 -3.60839 36017 ft 451 kts 354°
2026-05-06 09:29 41.32944 -3.60953 36018 ft 450 kts 354°
2026-05-06 09:29 41.39172 -3.61108 36019 ft 450 kts 354°
2026-05-06 09:30 41.45431 -3.61272 36020 ft 449 kts 354°
2026-05-06 09:30 41.51680 -3.61426 36019 ft 449 kts 354°
2026-05-06 09:31 41.57924 -3.61441 36021 ft 449 kts 355°
2026-05-06 09:31 41.64172 -3.61412 36020 ft 449 kts 355°
2026-05-06 09:32 41.70415 -3.61400 36024 ft 448 kts 355°
2026-05-06 09:32 41.76652 -3.61399 36019 ft 448 kts 355°
2026-05-06 09:33 41.82894 -3.61400 36016 ft 449 kts 355°
2026-05-06 09:33 41.89137 -3.61400 36018 ft 449 kts 355°
2026-05-06 09:34 41.95392 -3.61400 36019 ft 449 kts 355°
2026-05-06 09:34 42.01645 -3.61400 36022 ft 450 kts 355°
2026-05-06 09:35 42.07896 -3.61634 36019 ft 449 kts 352°
2026-05-06 09:35 42.14087 -3.62100 36021 ft 449 kts 352°
2026-05-06 09:36 42.20326 -3.62531 36022 ft 449 kts 353°
2026-05-06 09:36 42.26577 -3.62924 36023 ft 450 kts 353°
2026-05-06 09:37 42.32830 -3.63313 36025 ft 450 kts 353°
2026-05-06 09:37 42.39050 -3.63947 36023 ft 447 kts 348°
2026-05-06 09:38 42.45186 -3.65253 36029 ft 445 kts 347°
2026-05-06 09:38 42.51305 -3.66587 36023 ft 445 kts 348°
2026-05-06 09:39 42.57429 -3.67837 36023 ft 444 kts 348°
2026-05-06 09:39 42.63541 -3.69061 36022 ft 443 kts 348°
2026-05-06 09:40 42.69641 -3.70279 36017 ft 443 kts 349°
2026-05-06 09:40 42.78757 -3.71837 36020 ft 441 kts 350°
2026-05-06 09:41 42.84841 -3.72849 36017 ft 440 kts 349°
2026-05-06 09:41 42.90908 -3.73876 36018 ft 439 kts 349°
2026-05-06 09:42 42.96957 -3.74912 36022 ft 438 kts 349°
2026-05-06 09:42 43.02997 -3.75951 36028 ft 437 kts 350°
2026-05-06 09:43 43.09033 -3.76992 36032 ft 437 kts 350°
2026-05-06 09:43 43.15080 -3.78036 36038 ft 438 kts 350°
2026-05-06 09:44 43.21133 -3.79083 36045 ft 438 kts 350°
2026-05-06 09:44 43.27193 -3.80133 36048 ft 439 kts 350°
2026-05-06 09:45 43.33264 -3.81188 36056 ft 440 kts 350°
2026-05-06 09:45 43.39307 -3.82239 36057 ft 441 kts 350°
2026-05-06 09:46 43.45407 -3.83302 36049 ft 441 kts 350°
2026-05-06 09:46 43.51499 -3.84367 36049 ft 441 kts 350°
2026-05-06 09:47 43.57597 -3.85434 36054 ft 442 kts 350°
2026-05-06 09:47 43.63697 -3.86504 36041 ft 442 kts 350°
2026-05-06 09:48 43.69792 -3.87575 36038 ft 441 kts 350°
2026-05-06 09:48 43.75874 -3.88646 36035 ft 440 kts 351°
2026-05-06 09:49 43.81895 -3.89709 36028 ft 438 kts 351°
2026-05-06 09:49 43.87942 -3.90778 36017 ft 437 kts 351°
2026-05-06 09:50 43.93975 -3.91847 36025 ft 436 kts 351°
2026-05-06 09:50 43.99995 -3.92916 36021 ft 436 kts 351°
2026-05-06 09:51 44.06012 -3.93988 36024 ft 436 kts 351°
2026-05-06 09:51 44.12031 -3.95061 36018 ft 437 kts 351°
2026-05-06 09:52 44.17047 -3.95957 36020 ft 437 kts 351°
2026-05-06 09:52 44.23094 -3.97040 36024 ft 439 kts 351°
2026-05-06 09:53 44.30155 -3.98306 36022 ft 440 kts 351°
2026-05-06 09:53 44.35294 -3.98634 36015 ft 444 kts
2026-05-06 09:54 44.41404 -3.97704 36022 ft 445 kts
2026-05-06 09:54 44.47566 -3.96767 36017 ft 446 kts
2026-05-06 09:55 44.53750 -3.95870 36015 ft 446 kts
2026-05-06 09:55 44.59927 -3.94996 36014 ft 445 kts
2026-05-06 09:56 44.66090 -3.94126 36013 ft 444 kts
2026-05-06 09:56 44.72190 -3.93263 36014 ft 443 kts
2026-05-06 09:57 44.78305 -3.92394 36013 ft 441 kts
2026-05-06 09:57 44.84403 -3.91526 36010 ft 439 kts
2026-05-06 09:58 44.90470 -3.90661 36011 ft 437 kts
2026-05-06 09:58 44.96524 -3.89796 36008 ft 436 kts
2026-05-06 09:59 45.02536 -3.88934 36009 ft 434 kts
2026-05-06 09:59 45.08563 -3.88069 36009 ft 433 kts
2026-05-06 10:00 45.14546 -3.87208 36002 ft 433 kts
2026-05-06 10:00 45.20543 -3.86343 36003 ft 433 kts
2026-05-06 10:01 45.26536 -3.85478 36016 ft 437 kts
2026-05-06 10:01 45.32630 -3.84596 36015 ft 441 kts
2026-05-06 10:02 45.38730 -3.83711 36010 ft 443 kts
2026-05-06 10:02 45.44826 -3.82824 35995 ft 439 kts
2026-05-06 10:03 45.50896 -3.81938 35996 ft 434 kts
2026-05-06 10:03 45.56845 -3.81070 36003 ft 430 kts
2026-05-06 10:04 45.62788 -3.80200 36002 ft 428 kts
2026-05-06 10:04 45.68739 -3.79327 36011 ft 430 kts
2026-05-06 10:05 45.74698 -3.78452 36012 ft 434 kts
2026-05-06 10:05 45.80758 -3.77559 36008 ft 438 kts
2026-05-06 10:06 45.86820 -3.76664 35999 ft 440 kts
2026-05-06 10:06 45.92921 -3.75761 35997 ft 440 kts
2026-05-06 10:07 45.98989 -3.74861 36003 ft 441 kts
2026-05-06 10:07 46.05117 -3.73951 35994 ft 440 kts
2026-05-06 10:08 46.11177 -3.73048 35992 ft 438 kts
2026-05-06 10:08 46.17233 -3.72143 35981 ft 434 kts
2026-05-06 10:09 46.23183 -3.71253 35983 ft 430 kts
2026-05-06 10:09 46.29135 -3.70360 35990 ft 428 kts
2026-05-06 10:10 46.35058 -3.69634 36002 ft 429 kts
2026-05-06 10:10 46.41074 -3.69366 36005 ft 437 kts
2026-05-06 10:11 46.47189 -3.69159 36005 ft 442 kts
2026-05-06 10:11 46.53321 -3.68911 35999 ft 445 kts
2026-05-06 10:12 46.59511 -3.68630 35981 ft 441 kts
2026-05-06 10:12 46.65569 -3.68343 35979 ft 432 kts
2026-05-06 10:13 46.71559 -3.68060 35996 ft 430 kts
2026-05-06 10:13 46.77547 -3.67777 36000 ft 432 kts
2026-05-06 10:14 46.83577 -3.67492 35999 ft 436 kts
2026-05-06 10:14 46.89697 -3.67203 35994 ft 442 kts
2026-05-06 10:15 46.95842 -3.66910 36001 ft 445 kts
2026-05-06 10:15 47.02046 -3.66615 35979 ft 445 kts
2026-05-06 10:16 47.08205 -3.66320 35981 ft 440 kts
2026-05-06 10:16 47.14288 -3.66030 35987 ft 435 kts
2026-05-06 10:17 47.20336 -3.65740 35981 ft 434 kts
2026-05-06 10:17 47.26330 -3.65452 35977 ft 433 kts
2026-05-06 10:18 47.32368 -3.65162 35991 ft 435 kts
2026-05-06 10:18 47.38470 -3.64867 35990 ft 441 kts
2026-05-06 10:19 47.44632 -3.64569 35983 ft 445 kts
2026-05-06 10:19 47.50821 -3.64269 35984 ft 447 kts
2026-05-06 10:20 47.57040 -3.63966 35959 ft 445 kts
2026-05-06 10:20 47.63175 -3.63668 35958 ft 437 kts
2026-05-06 10:21 47.69219 -3.63372 35970 ft 437 kts
2026-05-06 10:21 47.75307 -3.63074 35961 ft 437 kts
2026-05-06 10:22 47.81404 -3.62775 35965 ft 438 kts
2026-05-06 10:22 47.87513 -3.62475 35958 ft 439 kts
2026-05-06 10:23 47.93602 -3.62175 35962 ft 441 kts
2026-05-06 10:23 47.99764 -3.61870 35967 ft 442 kts
2026-05-06 10:24 48.05926 -3.61565 35975 ft 443 kts
2026-05-06 10:24 48.12066 -3.61260 35963 ft 445 kts
2026-05-06 10:25 48.18262 -3.60952 35969 ft 445 kts
2026-05-06 10:25 48.24468 -3.60642 35967 ft 446 kts
2026-05-06 10:26 48.30688 -3.60331 35971 ft 447 kts
2026-05-06 10:26 48.36796 -3.59143 35987 ft 446 kts 14°
2026-05-06 10:27 48.42816 -3.56802 35988 ft 446 kts 14°
2026-05-06 10:27 48.48835 -3.54477 35980 ft 447 kts 14°
2026-05-06 10:28 48.54876 -3.52200 35992 ft 447 kts 14°
2026-05-06 10:28 48.60920 -3.49944 35991 ft 447 kts 14°
2026-05-06 10:29 48.63938 -3.48818 35574 ft 450 kts 14°
2026-05-06 10:29 48.66976 -3.47684 35128 ft 446 kts 14°
2026-05-06 10:29 48.69988 -3.46557 34590 ft 444 kts 14°
2026-05-06 10:29 48.72970 -3.45441 34200 ft 440 kts 14°
2026-05-06 10:30 48.75933 -3.44329 33722 ft 436 kts 14°
2026-05-06 10:30 48.78863 -3.43228 33246 ft 432 kts 14°
2026-05-06 10:30 48.81770 -3.42135 32815 ft 427 kts 14°
2026-05-06 10:30 48.84641 -3.41054 32397 ft 424 kts 15°
2026-05-06 10:31 48.87496 -3.39976 31973 ft 421 kts 15°
2026-05-06 10:31 48.90290 -3.38921 31552 ft 417 kts 15°
2026-05-06 10:31 48.93109 -3.37856 31151 ft 413 kts 15°
2026-05-06 10:31 48.95893 -3.36802 30753 ft 410 kts 15°
2026-05-06 10:32 48.98625 -3.35767 30360 ft 407 kts 15°
2026-05-06 10:32 49.01358 -3.34730 29956 ft 404 kts 15°
2026-05-06 10:32 49.04078 -3.33697 29498 ft 400 kts 15°
2026-05-06 10:32 49.06772 -3.32673 29087 ft 396 kts 15°
2026-05-06 10:33 49.09432 -3.31661 28665 ft 392 kts 15°
2026-05-06 10:33 49.12072 -3.30655 28284 ft 388 kts 15°
2026-05-06 10:33 49.14688 -3.29657 27859 ft 385 kts 15°
2026-05-06 10:33 49.17242 -3.28682 27476 ft 382 kts 15°
2026-05-06 10:34 49.19810 -3.27700 27081 ft 379 kts 15°
2026-05-06 10:34 49.22351 -3.26727 26687 ft 376 kts 15°
2026-05-06 10:34 49.24882 -3.25757 26303 ft 373 kts 15°
2026-05-06 10:34 49.27391 -3.24795 25922 ft 371 kts 15°
2026-05-06 10:35 49.29881 -3.23839 25545 ft 368 kts 15°
2026-05-06 10:35 49.32367 -3.22884 25171 ft 366 kts 14°
2026-05-06 10:35 49.34828 -3.21937 24799 ft 364 kts 14°
2026-05-06 10:35 49.37274 -3.20995 24427 ft 362 kts 14°
2026-05-06 10:36 49.39718 -3.20053 24058 ft 360 kts 14°
2026-05-06 10:36 49.42141 -3.19117 23691 ft 358 kts 14°
2026-05-06 10:36 49.44556 -3.18183 23274 ft 356 kts 14°
2026-05-06 10:36 49.46940 -3.17160 22888 ft 353 kts 17°
2026-05-06 10:37 49.49308 -3.16155 22485 ft 351 kts 14°
2026-05-06 10:37 49.51653 -3.15283 22109 ft 348 kts 13°
2026-05-06 10:37 49.54002 -3.14429 21749 ft 345 kts 13°
2026-05-06 10:37 49.56333 -3.13569 21389 ft 343 kts 13°
2026-05-06 10:38 49.58642 -3.12699 21023 ft 340 kts 13°
2026-05-06 10:38 49.60934 -3.11823 20673 ft 338 kts 14°
2026-05-06 10:38 49.63194 -3.11009 20273 ft 337 kts
2026-05-06 10:38 49.65546 -3.10903 19757 ft 339 kts 353°
2026-05-06 10:39 49.67860 -3.11580 19373 ft 338 kts 348°
2026-05-06 10:39 49.69383 -3.12073 19144 ft 336 kts 348°
2026-05-06 10:39 49.72419 -3.13009 18682 ft 333 kts 349°
2026-05-06 10:39 49.74695 -3.13684 18323 ft 332 kts 349°
2026-05-06 10:40 49.76192 -3.14121 18068 ft 330 kts 349°
2026-05-06 10:40 49.78450 -3.14774 17704 ft 328 kts 349°
2026-05-06 10:40 49.80685 -3.15419 17314 ft 326 kts 349°
2026-05-06 10:40 49.82906 -3.16060 16943 ft 324 kts 349°
2026-05-06 10:41 49.85095 -3.16691 16583 ft 321 kts 349°
2026-05-06 10:41 49.87271 -3.17418 16228 ft 319 kts 342°
2026-05-06 10:41 49.89279 -3.18841 16045 ft 312 kts 332°
2026-05-06 10:41 49.91181 -3.20430 15489 ft 316 kts 333°
2026-05-06 10:42 49.93140 -3.22015 15149 ft 316 kts 333°
2026-05-06 10:42 49.95059 -3.23553 15008 ft 311 kts 333°
2026-05-06 10:42 49.96963 -3.25074 14874 ft 305 kts 333°
2026-05-06 10:42 49.98829 -3.26564 14742 ft 296 kts 334°
2026-05-06 10:43 50.00620 -3.27994 14689 ft 281 kts 334°
2026-05-06 10:43 50.02304 -3.29342 14664 ft 263 kts 334°
2026-05-06 10:43 50.03907 -3.30625 14406 ft 256 kts 334°
2026-05-06 10:44 50.07010 -3.33109 13789 ft 252 kts 334°
2026-05-06 10:44 50.08577 -3.34362 13324 ft 254 kts 334°
2026-05-06 10:44 50.10145 -3.35618 12938 ft 251 kts 334°
2026-05-06 10:44 50.11691 -3.36858 12565 ft 248 kts 334°
2026-05-06 10:45 50.13222 -3.38086 12205 ft 245 kts 334°
2026-05-06 10:45 50.14716 -3.39288 11846 ft 243 kts 334°
2026-05-06 10:45 50.16214 -3.40491 11489 ft 241 kts 334°
2026-05-06 10:45 50.17703 -3.41690 11142 ft 241 kts 333°
2026-05-06 10:46 50.19230 -3.42919 10831 ft 255 kts 333°
2026-05-06 10:46 50.20868 -3.44237 10508 ft 271 kts 333°
2026-05-06 10:46 50.22538 -3.45584 10174 ft 274 kts 333°
2026-05-06 10:46 50.24237 -3.46956 9870 ft 273 kts 333°
2026-05-06 10:47 50.25924 -3.48319 9546 ft 271 kts 333°
2026-05-06 10:47 50.27612 -3.49627 9217 ft 270 kts 340°
2026-05-06 10:47 50.29433 -3.49991 8899 ft 268 kts
2026-05-06 10:47 50.31284 -3.49803 8604 ft 267 kts
2026-05-06 10:48 50.33144 -3.49713 8270 ft 267 kts
2026-05-06 10:48 50.34998 -3.49633 7876 ft 265 kts
2026-05-06 10:48 50.36827 -3.49551 7500 ft 260 kts
2026-05-06 10:48 50.38627 -3.49462 7117 ft 257 kts
2026-05-06 10:49 50.40390 -3.49780 6714 ft 254 kts 337°
2026-05-06 10:49 50.41907 -3.51088 6388 ft 250 kts 330°
2026-05-06 10:49 50.43436 -3.52403 5983 ft 249 kts 333°
2026-05-06 10:49 50.44961 -3.53664 5575 ft 246 kts 333°
2026-05-06 10:50 50.46467 -3.54905 5204 ft 243 kts 333°
2026-05-06 10:50 50.47946 -3.56128 4821 ft 241 kts 333°
2026-05-06 10:50 50.49427 -3.57356 4437 ft 239 kts 334°
2026-05-06 10:50 50.50897 -3.58579 4054 ft 238 kts 334°
2026-05-06 10:51 50.52343 -3.59792 3664 ft 238 kts 334°
2026-05-06 10:51 50.53804 -3.61013 3286 ft 238 kts 334°
2026-05-06 10:51 50.55269 -3.62235 2945 ft 236 kts 334°
2026-05-06 10:51 50.56691 -3.63429 2727 ft 226 kts 334°
2026-05-06 10:52 50.58021 -3.64548 2494 ft 212 kts 335°
2026-05-06 10:52 50.59288 -3.65614 2347 ft 202 kts 334°
2026-05-06 10:52 50.60537 -3.66666 2345 ft 202 kts 334°
2026-05-06 10:52 50.61800 -3.67605 2288 ft 198 kts 351°
2026-05-06 10:53 50.63083 -3.67277 2311 ft 185 kts 24°
2026-05-06 10:53 50.64273 -3.66627 2301 ft 177 kts 16°
2026-05-06 10:53 50.65469 -3.66159 2306 ft 176 kts 15°
2026-05-06 10:53 50.66654 -3.65691 2295 ft 174 kts 15°
2026-05-06 10:54 50.67807 -3.65229 2297 ft 173 kts 15°
2026-05-06 10:54 50.68970 -3.64760 2310 ft 171 kts 18°
2026-05-06 10:54 50.69895 -3.63683 2314 ft 170 kts 63°
2026-05-06 10:54 50.70202 -3.61820 2236 ft 181 kts 76°
2026-05-06 10:55 50.70447 -3.59878 2222 ft 178 kts 77°
2026-05-06 10:55 50.70657 -3.57970 2188 ft 178 kts 77°
2026-05-06 10:55 50.70841 -3.55986 1940 ft 183 kts 78°
2026-05-06 10:55 50.71071 -3.54089 1706 ft 169 kts 73°
2026-05-06 10:56 50.71386 -3.52491 1746 ft 140 kts 67°
2026-05-06 10:56 50.71717 -3.51011 1504 ft 147 kts 69°
2026-05-06 10:56 50.72041 -3.49492 1224 ft 141 kts 69°
2026-05-06 10:56 50.72314 -3.48035 966 ft 136 kts 72°
2026-05-06 10:57 50.72560 -3.46604 761 ft 137 kts 74°
2026-05-06 10:57 50.72822 -3.45148 512 ft 138 kts 73°
2026-05-06 10:57 50.73066 -3.43704 260 ft 134 kts 75°
2026-05-06 10:57 50.73287 -3.42296 117 ft 128 kts 76°
2026-05-06 10:58 50.73441 -3.41312 105 ft 49 kts 76°
2026-05-06 10:58 50.73438 -3.41061 110 ft 11 kts 167°
2026-05-06 10:58 50.73341 -3.41047 108 ft 16 kts 178°
2026-05-06 10:58 50.73240 -3.41105 108 ft 16 kts 231°
2026-05-06 10:59 50.73208 -3.41266 108 ft 15 kts 263°
2026-05-06 10:59 50.73209 -3.41435 107 ft 17 kts 271°
2026-05-06 10:59 50.73221 -3.41652 104 ft 21 kts 281°
2026-05-06 10:59 50.73192 -3.41778 106 ft 0 kts 221°
2026-05-06 11:00 50.73184 -3.41780 108 ft 1 kts 186°
2026-05-06 11:00 50.73176 -3.41769 110 ft 2 kts 130°
2026-05-06 11:00 50.73165 -3.41750 111 ft 3 kts 129°
2026-05-06 11:00 50.73160 -3.41739 111 ft 0 kts 130°